Retour au catalogue

COSMOS 1417

ActifMilitairePO
NORAD 13617·PAYLOAD·🇷🇺 Russia

Lancé Oct 19, 1982 depuis Plesetsk Cosmodrome

Loading…

Prochains Passages (prochaines 24 heures)

TLE

FraisSource: Space-Track

Époque: Sep 14, 2026, 07:10 UTC

1 13617U 82102A   26257.29899060  .00000058  00000-0  44231-4 0  9997
2 13617  82.9712 193.2384 0034369 174.2879 338.9216 13.75625046203200

Suivez COSMOS 1417 en temps réel avec AllMySat

Download on the App Store